Flag for Canada Weather past 2 weeks in Kitchener, Ontario, Canada

Now
48 °F

Sunny.


Feels Like: 44 °F
Forecast: 33 / 57 °F
Wind: 9 mph from Northwest

Location: Waterloo Well


UV Index: 5 (Moderate)

Visibility: 9 mi


Pressure: 30.17 "Hg

Humidity: 27%

Dew point: 16 °F

Location of KitchenerLocation

Historic Weather in Kitchener

°F

Kitchener temperature yesterday

Maximum temperature yesterday: 50 °F (at 3:00 PM)
Minimum temperature yesterday: 34 °F (at 11:00 PM)
Average temperature yesterday: 40 °F

Past Weeks' High & Low Weather Summary

 TemperatureHumidityPressure
High73 °F (Apr 21, 4:00 PM)100% (Apr 11, 6:00 AM)30.54 "Hg (Apr 11, 6:00 AM)
Low18 °F (Apr 16, 4:00 AM)22% (Apr 20, 6:00 PM)29.50 "Hg (Apr 14, 9:00 AM)
Average44 °F68%30.03 "Hg
* Reported Apr 9 11:00 AM — Apr 24 11:00 AM, Kitchener, Weather by CustomWeather, © 2014

Note: Actual official high and low records may vary slightly from our data, if they occured in-between our weather recording intervals... More about our weather records

Advertising

Historic Weather Conditions — Data for Previous 24 hours

 ConditionsComfort  
Time TempWeatherWind HumidityBarometerVisibility
11:00 AM
Apr 24
46 °FSunny.10 mph29%30.18 "Hg9 mi
10:00 AM45 °FSunny.7 mph34%30.18 "Hg9 mi
9:00 AM37 °FSunny.5 mph56%30.19 "Hg9 mi
8:00 AM32 °FSunny.6 mph75%30.18 "Hg9 mi
7:00 AM28 °FClear.5 mph80%30.17 "Hg9 mi
6:00 AM27 °FClear.6 mph80%30.16 "Hg9 mi
5:00 AM28 °FClear.5 mph80%30.14 "Hg9 mi
4:00 AM28 °FClear.3 mph74%30.12 "Hg9 mi
3:00 AM28 °FClear.3 mph74%30.12 "Hg9 mi
2:00 AM28 °FClear.6 mph74%30.12 "Hg9 mi
1:00 AM30 °FClear.6 mph69%30.13 "Hg9 mi
12:00 AM32 °FClear.7 mph64%30.12 "Hg9 mi
11:00 PM
Apr 23
34 °FClear.8 mph60%30.11 "Hg9 mi
10:00 PM36 °FClear.10 mph56%30.10 "Hg9 mi
9:00 PM37 °FSunny.12 mph48%30.08 "Hg9 mi
8:00 PM39 °FSunny.16 mph48%30.06 "Hg9 mi
7:00 PM43 °FSunny.15 mph42%30.04 "Hg9 mi
6:00 PM46 °FSunny.17 mph40%30.03 "Hg9 mi
5:00 PM48 °FSunny.15 mph37%30.01 "Hg9 mi
4:00 PM48 °FSunny.21 mph27%29.99 "Hg9 mi
3:00 PM50 °FSunny.22 mph30%29.98 "Hg9 mi
2:00 PM46 °FSunny.18 mph40%29.98 "Hg9 mi
1:00 PM45 °FSunny.17 mph46%29.97 "Hg9 mi
12:00 PM43 °FPassing clouds.20 mph57%29.97 "Hg9 mi
Weather by CustomWeather, © 2014

See weather overview